Weather History for Breckenridge, TX

Change the Weather History Date:

Tuesday, February 18, 2014

  Actual Average (KABI) Record (KABI)
Temperature  
Mean Temperature 62 °F 49 °F  
Max Temperature 85 °F 61 °F 85 °F (1986)
Min Temperature 39 °F 37 °F 10 °F (1936)
Degree Days  
Heating Degree Days 3 16  
Month to date heating degree days 317  
Since 1 July heating degree days 1986  
Cooling Degree Days 0 0  
Month to date cooling degree days 0  
Year to date cooling degree days 1  
Growing Degree Days 12 (Base 50)    
Moisture  
Dew Point 40 °F    
Average Humidity 44    
Maximum Humidity 71    
Minimum Humidity 24    
Precipitation  
Precipitation 0.00 in 0.05 in 0.88 in (1911)
Month to date precipitation 0.85  
Year to date precipitation 1.87  
Sea Level Pressure  
Sea Level Pressure 29.95 in    
Wind  
Wind Speed 7 mph (SSW)    
Max Wind Speed 21 mph    
Max Gust Speed 26 mph    
Visibility 10 miles    
Events      
T = Trace of Precipitation, MM = Missing Value Source: NWS Daily Summary

Daily Weather History Graph

Daily Weather History Graph

Search for Another Location

Airport:

Trip Planner

Search our weather history database for the weather conditions in past years. The results will help you decide how hot, cold, wet, or windy it might be!

Date:

Astronomy

Feb. 18, 2014 Rise Set
Actual Time 7:15 AM CST 6:23 PM CST
Civil Twilight 6:50 AM CST 6:48 PM CST
Nautical Twilight 6:21 AM CST 7:17 PM CST
Astronomical Twilight 5:53 AM CST 7:46 PM CST
Moon 10:03 PM CST (2/18) 9:02 AM CST (2/18)
Length of Visible Light 11h 58m
Length of Day
11h 08m
Waning Gibbous, 87% of the Moon is Illuminated
Feb 18
Waning Gibbous
Feb 22
Last Quarter
Mar 1
New
Mar 8
First Quarter
Mar 16
Full

Hourly Weather History & Observations

Time (CST) Temp. Windchill Dew Point Humidity Pressure Visibility Wind Dir Wind Speed Gust Speed Precip Events Conditions
12:10 AM 43.7 °F - 26.1 °F 50% 30.12 in 10.0 mi Calm Calm - N/A   Clear
12:30 AM 45.1 °F - 24.4 °F 44% 30.11 in 10.0 mi Calm Calm - N/A   Clear
12:50 AM 44.1 °F 40.8 °F 25.9 °F 49% 30.11 in 10.0 mi SSW 5.8 mph - N/A   Clear
1:10 AM 44.4 °F 42.9 °F 26.4 °F 49% 30.11 in 10.0 mi SW 3.5 mph - N/A   Clear
1:30 AM 43.3 °F 41.7 °F 26.6 °F 52% 30.11 in 10.0 mi SSW 3.5 mph - N/A   Clear
1:50 AM 41.4 °F - 27.9 °F 59% 30.10 in 10.0 mi Calm Calm - N/A   Clear
2:10 AM 42.4 °F - 27.5 °F 56% 30.09 in 10.0 mi Calm Calm - N/A   Clear
2:30 AM 43.0 °F 41.3 °F 28.0 °F 56% 30.08 in 10.0 mi SSW 3.5 mph - N/A   Clear
2:50 AM 42.6 °F 38.4 °F 27.5 °F 55% 30.06 in 10.0 mi South 6.9 mph - N/A   Clear
3:10 AM 45.1 °F 39.9 °F 27.5 °F 50% 30.05 in 10.0 mi SSE 10.4 mph - N/A   Clear
3:30 AM 44.4 °F 40.0 °F 27.7 °F 52% 30.04 in 10.0 mi SSE 8.1 mph - N/A   Clear
3:50 AM 43.7 °F 41.1 °F 27.1 °F 52% 30.04 in 10.0 mi SSE 4.6 mph - N/A   Clear
4:10 AM 42.3 °F - 27.5 °F 56% 30.04 in 10.0 mi Calm Calm - N/A   Clear
4:30 AM 45.0 °F - 25.9 °F 47% 30.04 in 10.0 mi Calm Calm - N/A   Clear
4:50 AM 41.7 °F - 27.5 °F 57% 30.04 in 10.0 mi Calm Calm - N/A   Clear
5:10 AM 39.9 °F - 28.2 °F 63% 30.04 in 10.0 mi Calm Calm - N/A   Clear
5:30 AM 41.0 °F - 27.7 °F 59% 30.04 in 10.0 mi Calm Calm - N/A   Clear
5:50 AM 40.8 °F 38.8 °F 27.5 °F 59% 30.03 in 10.0 mi SSW 3.5 mph - N/A   Clear
6:10 AM 44.1 °F 40.1 °F 25.7 °F 49% 30.02 in 10.0 mi South 6.9 mph - N/A   Clear
6:30 AM 43.7 °F 41.1 °F 25.7 °F 49% 30.01 in 10.0 mi South 4.6 mph - N/A   Clear
6:50 AM 41.7 °F 39.8 °F 26.6 °F 55% 30.01 in 10.0 mi South 3.5 mph - N/A   Clear
7:10 AM 43.3 °F 41.7 °F 26.8 °F 52% 30.01 in 10.0 mi South 3.5 mph - N/A   Clear
7:30 AM 45.0 °F 41.2 °F 27.0 °F 49% 30.01 in 10.0 mi South 6.9 mph - N/A   Clear
7:50 AM 47.7 °F - 26.8 °F 44% 30.01 in 10.0 mi South 8.1 mph - N/A   Clear
8:10 AM 50.4 °F - 26.8 °F 40% 30.01 in 10.0 mi South 8.1 mph - N/A   Clear
8:30 AM 53.6 °F - 27.1 °F 36% 30.02 in 10.0 mi South 4.6 mph - N/A   Clear
8:50 AM 57.0 °F - 27.9 °F 33% 30.01 in 10.0 mi South 5.8 mph - N/A   Clear
9:10 AM 61.9 °F - 28.4 °F 28% 30.00 in 10.0 mi South 11.5 mph 16.1 mph N/A   Clear
9:30 AM 65.3 °F - 27.5 °F 24% 30.00 in 10.0 mi South 15.0 mph - N/A   Clear
9:50 AM 65.8 °F - 27.9 °F 24% 30.01 in 10.0 mi South 16.1 mph - N/A   Clear
10:10 AM 69.3 °F - 32.5 °F 26% 30.00 in 10.0 mi SSW 15.0 mph 20.7 mph N/A   Clear
10:30 AM 70.7 °F - 39.7 °F 32% 29.99 in 10.0 mi SSW 13.8 mph 19.6 mph N/A   Clear
10:50 AM 72.5 °F - 45.9 °F 39% 29.99 in 10.0 mi SW 20.7 mph 26.5 mph N/A   Clear
11:10 AM 73.4 °F - 45.7 °F 37% 29.98 in 10.0 mi SSW 17.3 mph 24.2 mph N/A   Clear
11:30 AM 75.2 °F - 46.2 °F 36% 29.97 in 10.0 mi SW 18.4 mph 23.0 mph N/A   Clear
11:50 AM 76.1 °F - 46.8 °F 35% 29.96 in 10.0 mi SSW 20.7 mph 26.5 mph N/A   Clear
12:10 PM 77.0 °F - 46.9 °F 34% 29.95 in 10.0 mi SSW 20.7 mph 25.3 mph N/A   Clear
12:30 PM 75.6 °F - 47.8 °F 37% 29.93 in 10.0 mi SSW 13.8 mph 23.0 mph N/A   Clear
12:50 PM 77.2 °F - 48.9 °F 37% 29.91 in 10.0 mi SW 15.0 mph - N/A   Clear
1:10 PM 80.4 °F - 50.2 °F 35% 29.89 in 10.0 mi SSW 15.0 mph 21.9 mph N/A   Clear
1:30 PM 81.5 °F - 50.2 °F 34% 29.88 in 10.0 mi SSW 17.3 mph 25.3 mph N/A   Clear
1:50 PM 82.6 °F - 49.1 °F 31% 29.87 in 10.0 mi WSW 19.6 mph 24.2 mph N/A   Clear
2:10 PM 83.1 °F - 50.0 °F 32% 29.86 in 10.0 mi SW 15.0 mph 23.0 mph N/A   Clear
2:30 PM 82.6 °F - 48.7 °F 31% 29.85 in 10.0 mi SW 17.3 mph 23.0 mph N/A   Clear
2:50 PM 83.5 °F - 49.1 °F 30% 29.84 in 7.0 mi SW 11.5 mph 21.9 mph N/A   Clear
3:10 PM 85.1 °F - 48.4 °F 28% 29.84 in 10.0 mi WSW 12.7 mph 19.6 mph N/A   Clear
3:30 PM 85.3 °F - 46.8 °F 26% 29.83 in 7.0 mi WSW 13.8 mph 21.9 mph N/A   Clear
3:50 PM 85.1 °F - 44.6 °F 24% 29.83 in 7.0 mi West 16.1 mph 20.7 mph N/A   Clear
4:10 PM 84.9 °F - 45.9 °F 26% 29.83 in 7.0 mi North - - N/A   Clear
4:30 PM 85.1 °F - 45.0 °F 25% 29.83 in 7.0 mi West 11.5 mph 20.7 mph N/A   Clear
4:50 PM 84.4 °F - 45.9 °F 26% 29.82 in 7.0 mi WSW 9.2 mph 16.1 mph N/A   Clear
5:10 PM 84.4 °F - 46.6 °F 27% 29.81 in 7.0 mi WSW 6.9 mph - N/A   Clear
5:30 PM 83.5 °F - 44.8 °F 26% 29.81 in 7.0 mi West 6.9 mph - N/A   Clear
5:50 PM 81.7 °F - 44.6 °F 27% 29.82 in 7.0 mi North - - N/A   Clear
6:10 PM 78.6 °F - 44.6 °F 30% 29.82 in 7.0 mi West 5.8 mph - N/A   Clear
6:30 PM 76.6 °F - 44.2 °F 32% 29.83 in 7.0 mi West 4.6 mph - N/A   Clear
6:50 PM 74.8 °F - 44.1 °F 33% 29.83 in 7.0 mi Calm Calm - N/A   Clear
7:10 PM 75.2 °F - 44.6 °F 34% 29.84 in 10.0 mi South 6.9 mph - N/A   Clear
7:30 PM 75.2 °F - 47.7 °F 38% 29.84 in 10.0 mi South 9.2 mph - N/A   Clear
7:50 PM 73.6 °F - 48.7 °F 41% 29.84 in 10.0 mi SSE 9.2 mph - N/A   Clear
8:10 PM 72.0 °F - 49.8 °F 46% 29.85 in 10.0 mi SSE 9.2 mph - N/A   Clear
8:30 PM 71.4 °F - 51.8 °F 50% 29.85 in 10.0 mi South 10.4 mph - N/A   Clear
8:50 PM 70.7 °F - 53.2 °F 54% 29.85 in 10.0 mi South 9.2 mph - N/A   Clear
9:10 PM 70.2 °F - 54.3 °F 57% 29.86 in 10.0 mi South 10.4 mph - N/A   Clear
9:30 PM 69.8 °F - 55.8 °F 61% 29.87 in 10.0 mi South 12.7 mph 17.3 mph N/A   Clear
9:50 PM 69.3 °F - 56.3 °F 63% 29.87 in 10.0 mi South 11.5 mph - N/A   Clear
10:10 PM 68.5 °F - 56.5 °F 65% 29.88 in 10.0 mi South 10.4 mph - N/A   Clear
10:30 PM 67.8 °F - 56.5 °F 67% 29.88 in 10.0 mi South 10.4 mph - N/A   Clear
10:50 PM 67.1 °F - 56.7 °F 69% 29.88 in 10.0 mi South 10.4 mph - N/A   Clear
11:10 PM 66.6 °F - 56.8 °F 71% 29.88 in 10.0 mi South 12.7 mph - N/A   Clear
11:30 PM 66.9 °F - 57.0 °F 70% 29.88 in 10.0 mi South 11.5 mph - N/A   Clear
11:50 PM 66.9 °F - 57.2 °F 71% 29.88 in 10.0 mi South 12.7 mph 20.7 mph N/A   Clear